Weather reports worldwide

Advertisment
Greifswalder Oie, Germany (10097): temperature & dewpoint: 09.09.2019 10:00:00 - 15.09.2019 10:00:00 (CEST)Greifswalder Oie, Germany (10097): temperature 5cm & temperature -5cm: 09.09.2019 10:00:00 - 15.09.2019 10:00:00 (CEST)Greifswalder Oie, Germany (10097): temperature -20cm & temperature -100cm: 09.09.2019 10:00:00 - 15.09.2019 10:00:00 (CEST)Greifswalder Oie, Germany (10097): water temperature: 09.09.2019 10:00:00 - 15.09.2019 10:00:00 (CEST)Greifswalder Oie, Germany (10097): wind speed & gusts: 09.09.2019 10:00:00 - 15.09.2019 10:00:00 (CEST)Greifswalder Oie, Germany (10097): wind direction: 09.09.2019 10:00:00 - 15.09.2019 10:00:00 (CEST)Greifswalder Oie, Germany (10097): reduced air pressure: 09.09.2019 10:00:00 - 15.09.2019 10:00:00 (CEST)Greifswalder Oie, Germany (10097): visibility: 09.09.2019 10:00:00 - 15.09.2019 10:00:00 (CEST)Greifswalder Oie, Germany (10097): sunshine duration: 09.09.2019 10:00:00 - 15.09.2019 10:00:00 (CEST)Greifswalder Oie, Germany (10097): precipitation: 09.09.2019 10:00:00 - 15.09.2019 10:00:00 (CEST)
Date & Time tt [°C] td [°C] tt 5cm [°C] tt -5cm [°C] tt -20cm [°C] tt -100cm [°C] tw [°C] ff [km/h] ff [kn] fx [km/h] fx [kn] dd ppp [hPa] vv [km] sd [min] rr [mm]
15.09.2019 10:00:00 15,4 8,3 15,6 13,2 13,9 16,7 15,8 50 27 61 33 WSW 1016,1 64 29 0,0
15.09.2019 09:00:00 14,3 8,0 14,3 12,4 13,9 16,8 15,8 42 23 53 28 SW 1017,0 51 51 0,0
15.09.2019 08:00:00 13,3 7,6 13,0 11,6 14,0 16,8 15,7 41 22 52 28 SW 1017,6 45 6 0,0
15.09.2019 07:00:00 13,2 7,4 12,5 11,5 14,1 16,8 15,8 41 22 50 27 SW 1018,9 52 0 0,0
15.09.2019 06:00:00 13,5 8,0 12,6 11,7 14,3 16,8 16,0 41 22 48 26 SW 1020,2 51 0 0,0
15.09.2019 05:00:00 13,3 8,4 12,5 11,8 14,4 16,8 16,2 35 19 44 24 SW 1021,2 49 0 0,0
15.09.2019 04:00:00 13,5 8,0 12,7 12,0 14,6 16,8 16,3 34 18 44 24 SW 1022,4 53 0 0,0
15.09.2019 03:00:00 14,0 8,2 13,1 12,2 14,7 16,8 16,4 35 19 42 23 SW 1023,3 47 0 0,0
15.09.2019 02:00:00 14,2 8,5 13,3 12,3 14,9 16,8 16,2 31 17 38 20 SW 1024,6 48 0 0,0
15.09.2019 01:00:00 14,3 8,4 13,4 12,4 15,1 16,8 16,0 31 17 38 20 SSW 1025,4 53 0 0,0
15.09.2019 00:00:00 14,7 7,9 13,7 12,6 15,3 16,8 16,4 29 16 35 19 SSW 1026,5 48 0 0,0
14.09.2019 23:00:00 14,8 9,3 13,5 12,9 15,6 16,9 16,7 24 13 29 16 SW 1027,4 46 0 0,0
14.09.2019 22:00:00 14,9 9,2 13,5 13,2 15,8 16,9 16,9 21 11 30 16 SW 1027,9 54 0 0,0
14.09.2019 21:00:00 15,5 7,9 14,2 13,6 16,1 16,9 17,2 23 12 36 19 W 1028,7 59 0 0,0
14.09.2019 20:00:00 15,8 8,3 14,8 14,3 16,3 16,9 17,2 28 15 33 18 W 1029,5 49 8 0,0
14.09.2019 19:00:00 15,8 8,5 15,0 15,1 16,4 16,9 17,2 27 15 33 18 W 1029,5 48 48 0,0
14.09.2019 18:00:00 16,6 9,1 16,1 16,1 16,3 16,9 17,3 22 12 34 18 WNW 1030,1 43 60 0,0
14.09.2019 17:00:00 16,9 8,6 16,9 17,6 16,1 16,9 17,3 22 12 27 14 WNW 1030,5 41 60 0,0
14.09.2019 16:00:00 17,9 9,2 19,7 17,7 15,8 16,9 17,2 20 11 30 16 WNW 1031,5 47 60 0,0
14.09.2019 15:00:00 17,0 8,4 18,7 17,2 15,6 16,9 17,1 25 14 39 21 WNW 1032,1 50 60 0,0
14.09.2019 14:00:00 16,6 8,0 17,4 16,3 15,3 17,0 17,0 32 17 40 22 WNW 1032,2 47 50 0,0
14.09.2019 13:00:00 15,7 8,5 17,4 16,7 15,0 17,0 16,9 31 17 37 20 W 1032,7 38 60 0,0
14.09.2019 12:00:00 15,7 9,5 17,7 16,3 14,7 17,0 16,8 26 14 36 20 W 1033,0 41 54 0,0
14.09.2019 11:00:00 16,7 9,5 17,6 15,5 14,5 17,0 16,7 32 17 40 22 WNW 1033,1 34 59 0,0
14.09.2019 10:00:00 15,6 10,3 15,8 14,2 14,3 17,0 16,5 33 18 42 23 WNW 1033,0 39 60 0,0
14.09.2019 09:00:00 14,5 10,1 14,2 13,1 14,4 17,0 16,5 33 18 44 24 WNW 1032,5 41 60 0,0
14.09.2019 08:00:00 14,0 9,8 13,5 12,3 14,4 17,0 16,5 38 21 48 26 WNW 1032,2 29 42 0,0
14.09.2019 07:00:00 13,7 9,8 13,1 12,1 14,6 17,0 16,5 38 21 48 26 WNW 1031,9 36 0 0,0
14.09.2019 06:00:00 13,6 9,7 13,0 12,1 14,7 17,0 16,5 36 19 42 23 WNW 1031,9 30 0 0,0
14.09.2019 05:00:00 13,7 9,5 13,1 12,1 14,9 17,0 16,6 32 17 46 25 WNW 1032,0 36 0 0,0
14.09.2019 04:00:00 13,9 9,1 13,2 12,3 15,1 17,0 16,6 39 21 46 25 WNW 1031,7 33 0 0,0
14.09.2019 03:00:00 13,9 9,8 13,1 12,6 15,3 17,0 16,7 38 21 45 24 NW 1032,0 34 0 0,0
14.09.2019 02:00:00 14,0 9,7 13,2 12,8 15,5 17,0 16,8 36 19 45 24 NW 1031,9 37 0 0,0
14.09.2019 01:00:00 14,3 9,7 13,6 12,9 15,7 17,0 16,9 37 20 45 25 NW 1031,6 39 0 0,0
14.09.2019 00:00:00 14,6 9,7 13,8 13,1 16,0 17,0 17,0 36 19 46 25 NW 1031,3 46 0 0,0
13.09.2019 23:00:00 14,7 9,6 14,0 13,4 16,2 17,0 17,1 36 19 45 24 NW 1030,9 40 0 0,0
13.09.2019 22:00:00 15,1 9,6 14,4 13,8 16,5 17,0 17,2 35 19 44 24 NW 1030,5 40 0 0,0
13.09.2019 21:00:00 15,4 9,7 14,9 14,2 16,8 17,0 17,2 35 19 45 25 NW 1030,0 41 0 0,0
13.09.2019 20:00:00 15,8 9,6 15,1 14,7 17,1 17,1 17,3 36 20 49 26 NW 1029,4 43 0 0,0
13.09.2019 19:00:00 16,2 9,4 15,7 15,5 17,3 17,1 17,5 39 21 55 30 WNW 1029,0 47 34 0,0
13.09.2019 18:00:00 16,9 9,8 16,6 16,4 17,5 17,1 17,7 46 25 58 31 NW 1028,8 43 57 0,0
13.09.2019 17:00:00 17,6 10,5 17,7 17,5 17,5 17,1 17,8 44 24 58 31 NW 1028,4 38 50 0,0
13.09.2019 16:00:00 17,7 10,3 18,3 18,3 17,4 17,1 17,8 47 26 58 31 WNW 1027,8 41 57 0,0
13.09.2019 15:00:00 18,5 11,1 19,5 18,2 17,3 17,1 17,7 41 22 54 29 NW 1027,3 42 29 0,0
13.09.2019 14:00:00 18,7 11,6 19,9 18,9 17,0 17,1 17,7 42 23 56 30 WNW 1026,6 41 51 0,0
13.09.2019 13:00:00 17,8 11,2 18,1 19,1 16,7 17,1 17,7 42 23 53 29 NW 1025,8 49 50 0,0
13.09.2019 12:00:00 17,8 12,4 18,4 18,3 16,5 17,1 17,6 45 24 53 29 NW 1025,0 63 45 0,0
13.09.2019 11:00:00 16,6 14,3 16,2 16,8 16,3 17,1 17,5 42 23 60 33 NW 1023,8 73 0 0,0
13.09.2019 10:00:00 16,9 15,9 16,5 16,3 16,3 17,1 17,4 43 23 56 31 WSW 1022,2 9 0 0,3
13.09.2019 09:00:00 17,5 14,9 17,5 16,0 16,2 17,1 17,3 43 23 57 31 WSW 1021,7 26 0 0,0
13.09.2019 08:00:00 17,4 14,4 17,3 15,5 16,2 17,1 17,3 41 22 51 28 WSW 1021,5 32 0 0,0
13.09.2019 07:00:00 17,0 13,9 16,7 15,2 16,3 17,1 17,4 36 19 42 23 SW 1021,5 38 0 0,0
13.09.2019 06:00:00 16,6 13,5 16,1 15,1 16,3 17,1 17,4 32 17 41 22 SW 1021,7 37 0 0,0
13.09.2019 05:00:00 16,8 13,4 16,2 15,0 16,4 17,1 17,5 33 18 38 21 SW 1022,1 36 0 0,0
13.09.2019 04:00:00 16,5 13,0 16,0 15,0 16,6 17,1 17,6 28 15 34 18 SW 1022,5 41 0 0,0
13.09.2019 03:00:00 15,9 12,5 15,5 15,0 16,7 17,1 17,6 22 12 25 14 SW 1023,5 39 0 0,0
13.09.2019 02:00:00 16,1 12,8 15,4 15,1 16,9 17,1 18,0 18 10 29 16 SSW 1023,9 34 0 0,0
13.09.2019 01:00:00 16,9 13,1 15,9 15,2 17,1 17,1 18,1 26 14 35 19 WSW 1024,2 42 0 0,0
13.09.2019 00:00:00 17,2 12,9 16,2 15,5 17,3 17,1 18,3 26 14 37 20 W 1024,6 43 0 0,0
12.09.2019 23:00:00 17,1 13,5 16,0 15,8 17,5 17,1 18,6 23 12 27 15 WSW 1024,9 37 0 0,0
12.09.2019 22:00:00 17,4 14,2 16,1 16,1 17,8 17,1 18,7 20 11 26 14 WSW 1025,1 36 0 0,0
12.09.2019 21:00:00 17,7 13,4 16,6 16,5 18,0 17,1 18,8 18 10 21 11 SW 1024,9 41 0 0,0
12.09.2019 20:00:00 17,9 14,3 16,5 17,1 18,2 17,2 18,7 15 8 18 10 WSW 1024,9 37 0 0,0
12.09.2019 19:00:00 18,2 13,9 17,6 18,0 18,3 17,2 18,5 14 8 21 11 WSW 1024,8 44 59 0,0
12.09.2019 18:00:00 18,6 13,5 18,6 18,6 18,3 17,2 18,7 18 10 22 12 W 1024,7 41 32 0,0
12.09.2019 17:00:00 18,6 13,6 19,4 19,1 18,3 17,2 18,5 18 10 23 13 W 1024,9 51 8 0,0
12.09.2019 16:00:00 18,2 13,4 18,8 19,9 18,1 17,2 18,6 20 11 31 17 W 1025,0 50 0 0,0
12.09.2019 15:00:00 18,4 13,1 19,0 20,9 17,8 17,2 18,9 26 14 32 18 WSW 1025,0 47 23 0,0
12.09.2019 14:00:00 19,3 12,7 21,8 21,7 17,2 17,2 18,5 27 15 32 17 WSW 1025,0 60 60 0,0
12.09.2019 13:00:00 19,1 12,8 22,5 20,7 16,7 17,2 18,1 25 13 32 17 WSW 1024,7 63 60 0,0
12.09.2019 12:00:00 17,7 13,2 20,0 19,2 16,3 17,2 17,7 26 14 38 20 WSW 1024,8 47 60 0,0
12.09.2019 11:00:00 17,0 13,3 18,6 17,8 16,0 17,2 17,4 32 17 44 24 WSW 1024,2 37 57 0,0
12.09.2019 10:00:00 16,1 13,7 16,8 16,4 15,9 17,2 17,2 37 20 48 26 WSW 1023,7 21 53 0,0
12.09.2019 09:00:00 15,6 14,0 15,7 15,3 15,9 17,2 17,0 38 21 47 25 WSW 1023,1 17 45 0,0
12.09.2019 08:00:00 15,3 13,5 14,9 14,7 16,0 17,3 17,0 37 20 49 27 WSW 1022,2 21 41 0,0
12.09.2019 07:00:00 15,3 13,7 14,6 14,7 16,1 17,3 17,0 39 21 54 29 WSW 1021,4 24 0 0,0
12.09.2019 06:00:00 15,5 13,6 15,1 14,8 16,2 17,3 17,0 44 24 56 30 WSW 1020,9 28 0 0,0
12.09.2019 05:00:00 15,6 13,9 15,2 15,1 16,2 17,3 17,1 42 23 54 29 WSW 1020,4 26 0 0,0
12.09.2019 04:00:00 15,4 14,0 14,8 15,1 16,3 17,3 17,2 39 21 53 28 WSW 1020,1 26 0 0,0
12.09.2019 03:00:00 15,2 14,0 14,7 15,1 16,4 17,3 17,2 39 21 50 27 WSW 1019,6 25 0 0,0
12.09.2019 02:00:00 14,9 13,8 14,4 15,1 16,5 17,3 17,3 42 23 57 31 SW 1019,2 18 0 0,4
12.09.2019 01:00:00 16,1 13,0 15,8 15,1 16,6 17,3 17,4 45 25 59 32 WSW 1019,0 26 0 0,1
12.09.2019 00:00:00 17,2 10,8 16,3 15,1 16,8 17,3 17,5 33 18 44 24 SW 1018,8 37 0 0,0
11.09.2019 23:00:00 17,8 10,8 17,3 15,3 17,0 17,3 17,5 32 18 39 21 SSW 1018,4 54 0 0,0
11.09.2019 22:00:00 18,0 10,6 17,3 15,6 17,2 17,4 18,0 30 16 36 19 SSW 1018,8 50 0 0,0
11.09.2019 21:00:00 18,2 11,0 17,4 15,9 17,4 17,4 18,3 20 11 29 15 S 1018,9 56 0 0,0
11.09.2019 20:00:00 18,4 11,7 17,4 16,4 17,6 17,4 18,6 19 10 27 15 S 1019,1 55 0 0,0
11.09.2019 19:00:00 18,6 12,1 17,8 17,1 17,7 17,4 19,0 17 9 29 15 S 1018,9 43 11 0,0
11.09.2019 18:00:00 19,3 10,8 19,0 17,8 17,8 17,4 19,3 24 13 30 16 SSW 1019,2 43 26 0,0
11.09.2019 17:00:00 19,5 11,0 19,7 18,4 17,7 17,4 19,3 24 13 39 21 SW 1019,3 56 8 0,0
11.09.2019 16:00:00 19,2 10,1 19,6 19,7 17,5 17,4 19,4 37 20 46 25 SW 1019,6 47 50 0,0
11.09.2019 15:00:00 19,1 10,4 20,5 20,0 17,1 17,5 19,2 36 19 44 24 SW 1019,9 43 45 0,0
11.09.2019 14:00:00 19,0 11,2 21,4 19,9 16,7 17,5 18,7 32 18 46 25 SW 1020,3 32 53 0,0
11.09.2019 13:00:00 18,4 11,8 20,9 19,5 16,2 17,5 18,2 29 16 39 21 SW 1020,4 51 59 0,0
11.09.2019 12:00:00 17,3 11,2 19,5 18,7 15,8 17,5 17,8 32 18 40 22 SW 1020,7 43 60 0,0
11.09.2019 11:00:00 16,3 10,6 18,0 17,3 15,5 17,5 17,5 30 16 36 20 SW 1020,7 55 60 0,0
11.09.2019 10:00:00 15,3 11,8 16,3 15,8 15,3 17,5 17,3 29 16 38 21 SW 1020,5 39 60 0,0
11.09.2019 09:00:00 14,1 11,7 14,1 14,5 15,4 17,5 17,2 32 18 39 21 SW 1019,9 38 60 0,0
11.09.2019 08:00:00 14,2 12,2 13,7 13,8 15,5 17,6 17,1 30 16 44 24 WSW 1019,2 37 57 0,0
11.09.2019 07:00:00 14,0 12,5 13,2 13,7 15,6 17,6 17,1 37 20 45 25 WSW 1018,8 36 0 0,0
11.09.2019 06:00:00 14,3 12,6 13,5 14,1 15,7 17,6 17,1 36 20 48 26 WSW 1018,3 42 0 0,0
11.09.2019 05:00:00 15,2 13,1 14,7 14,4 15,8 17,6 17,2 40 21 51 28 WSW 1017,8 41 0 0,0
11.09.2019 04:00:00 15,2 13,1 14,6 14,5 15,8 17,6 17,3 41 22 53 28 WSW 1017,4 41 0 0,0
11.09.2019 03:00:00 15,5 13,3 15,0 14,7 15,9 17,6 17,3 43 23 57 31 WSW 1016,9 40 0 0,0
11.09.2019 02:00:00 15,6 13,5 15,2 14,8 15,9 17,6 17,4 45 25 59 32 WSW 1016,5 42 0 0,0
11.09.2019 01:00:00 15,7 13,4 15,2 14,9 16,0 17,7 17,4 49 26 64 35 W 1015,9 42 0 0,0
11.09.2019 00:00:00 15,8 13,4 15,2 14,9 16,1 17,7 17,4 51 28 66 36 WSW 1015,2 48 0 0,0
10.09.2019 23:00:00 15,5 13,3 15,2 15,0 16,1 17,7 17,5 52 28 72 39 WSW 1014,7 38 0 0,0
10.09.2019 22:00:00 15,4 13,4 15,0 15,1 16,2 17,7 17,8 56 30 69 37 WSW 1014,0 39 0 0,1
10.09.2019 21:00:00 15,1 14,1 14,6 15,2 16,2 17,7 17,6 52 28 68 37 WSW 1013,3 7 0 0,3
10.09.2019 20:00:00 15,4 13,9 14,7 15,3 16,3 17,7 17,6 58 31 74 40 WSW 1012,5 16 0 0,5
10.09.2019 19:00:00 15,7 14,0 14,9 15,4 16,3 17,7 17,7 57 31 72 39 WSW 1011,7 14 0 0,8
10.09.2019 18:00:00 15,7 13,8 14,7 15,5 16,3 17,8 17,6 53 29 73 39 WSW 1011,0 12 0 0,6
10.09.2019 17:00:00 15,7 13,8 14,9 15,6 16,4 17,8 17,8 59 32 77 42 WSW 1010,2 18 0 0,3
10.09.2019 16:00:00 15,7 14,0 15,0 15,7 16,4 17,8 18,3 62 34 76 41 WSW 1009,5 12 0 0,0
10.09.2019 15:00:00 15,7 14,1 15,3 15,6 16,4 17,8 18,3 66 35 82 44 W 1008,5 21 0 0,4
10.09.2019 14:00:00 15,6 14,5 15,0 15,6 16,4 17,8 18,3 62 34 82 44 W 1007,9 6 0 1,9
10.09.2019 13:00:00 15,8 14,4 15,1 15,7 16,5 17,8 18,3 63 34 80 43 W 1007,0 7 0 2,3
10.09.2019 12:00:00 15,6 14,4 15,0 15,6 16,5 17,8 18,1 61 33 74 40 W 1006,4 7 0 3,7
10.09.2019 11:00:00 15,3 14,1 14,8 15,8 16,5 17,8 17,9 61 33 77 41 W 1005,7 6 0 3,3
10.09.2019 10:00:00 15,8 15,0 15,5 16,0 16,5 17,9 17,6 55 30 64 35 W 1005,7 6 0 1,3
10.09.2019 09:00:00 16,2 15,5 16,0 15,8 16,5 17,9 17,5 34 19 41 22 WNW 1005,6 12 0 1,5
10.09.2019 08:00:00 15,8 15,3 15,5 15,6 16,5 17,9 17,5 27 15 33 18 WNW 1005,8 11 0 0,6
10.09.2019 07:00:00 15,5 14,7 15,2 15,4 16,5 17,9 17,5 29 15 34 18 W 1005,9 12 0 0,8
10.09.2019 06:00:00 15,5 14,4 14,9 15,3 16,6 17,9 17,5 28 15 33 18 W 1006,1 15 0 0,3
10.09.2019 05:00:00 15,4 14,2 14,9 15,3 16,7 17,9 17,5 24 13 30 16 W 1006,1 35 0 0,2
10.09.2019 04:00:00 15,3 14,5 14,9 15,4 16,7 17,9 17,6 21 12 33 18 WNW 1006,8 31 0 0,1
10.09.2019 03:00:00 15,3 14,3 14,8 15,5 16,8 17,9 17,6 29 16 34 18 W 1007,0 32 0 0,6
10.09.2019 02:00:00 15,5 14,0 14,8 15,5 16,9 18,0 17,6 19 11 23 12 W 1007,8 28 0 0,0
10.09.2019 01:00:00 15,7 14,4 15,0 15,6 17,0 18,0 17,6 17 9 21 11 W 1008,0 18 0 0,0
10.09.2019 00:00:00 15,6 14,2 14,8 15,8 17,1 18,0 17,7 12 6 19 10 W 1008,2 13 0 0,1
09.09.2019 23:00:00 15,6 14,4 15,0 15,9 17,2 18,0 17,7 8 4 15 8 WSW 1008,6 8 0 0,1
09.09.2019 22:00:00 15,8 14,5 15,1 16,0 17,2 18,0 17,7 11 6 18 10 SSW 1009,0 12 0 0,9
09.09.2019 21:00:00 16,5 13,9 16,1 16,1 17,3 18,0 17,6 11 6 22 12 SE 1009,2 27 0 0,0
09.09.2019 20:00:00 16,3 13,7 16,0 16,2 17,4 18,0 17,6 13 7 23 12 SE 1009,1 28 0 0,0
09.09.2019 19:00:00 16,3 13,9 15,8 16,4 17,5 18,0 17,6 14 8 24 13 SE 1008,8 20 0 0,0
09.09.2019 18:00:00 16,1 14,2 15,8 16,5 17,6 18,1 17,6 16 9 37 20 ESE 1009,0 16 0 0,0
09.09.2019 17:00:00 16,4 14,2 15,7 16,7 17,7 18,1 17,6 18 10 29 16 E 1009,4 19 0 0,0
09.09.2019 16:00:00 15,6 13,2 15,0 17,0 17,7 18,1 17,6 16 9 28 15 NE 1009,8 55 0 0,0
09.09.2019 15:00:00 15,0 12,2 14,6 17,5 17,7 18,1 17,7 19 10 29 16 ENE 1010,4 61 0 0,1
09.09.2019 14:00:00 15,3 12,9 15,3 17,7 17,6 18,1 17,7 11 6 24 13 ENE 1010,8 44 0 0,9
09.09.2019 13:00:00 15,5 13,3 15,5 17,6 17,5 18,1 17,7 18 10 25 13 E 1011,5 17 0 0,3
09.09.2019 12:00:00 15,7 14,1 15,8 17,5 17,5 18,1 17,7 16 9 30 16 ESE 1012,0 21 0 0,3
09.09.2019 11:00:00 16,1 14,1 16,3 17,5 17,4 18,1 17,7 18 10 27 14 ESE 1012,4 15 0 0,0
09.09.2019 10:00:00 16,2 13,7 16,8 17,5 17,3 18,1 17,7 18 10 30 16 ESE 1012,5 40 5 0,0

tt = temperature
td = dewpoint
tt 5cm = temperature 5cm
tt -5cm = temperature -5cm
tt -20cm = temperature -20cm
tt -100cm = temperature -100cm
tw = water temperature
ff = wind speed
fx = gusts
dd = wind direction
ppp = reduced air pressure
vv = visibility
sd = sunshine duration
rr = precipitation

Next stations